Flag for Canada Weather past 2 weeks in St. John's, Newfoundland and Labrador, Canada

Now
32 °F

Snow flurries. Overcast.


Feels Like: 26 °F
Forecast: 35 / 38 °F
Wind: 7 mph from North

Location: St. John's

Current Time: Dec 20, 2014 at 1:45:37 AM

Latest Report: Dec 20, 2014 at 12:30 AM


Visibility: 10 mi

Pressure: 29.81 "Hg

Humidity: 93%

Dew point: 30 °F

Location of St. John'sLocation

Historic Weather in St. John's — Graph

°F

St. John's temperature yesterday

Maximum temperature yesterday: 46 °F (at 5:30 AM)
Minimum temperature yesterday: 32 °F (at 11:30 PM)
Average temperature yesterday: 40 °F

Past Weeks' High & Low Weather Summary

 TemperatureHumidityPressure
High54 °F (Dec 13, 11:30 AM)100% (Dec 7, 6:30 PM)30.82 "Hg (Dec 7, 6:30 PM)
Low12 °F (Dec 8, 6:30 AM)55% (Dec 5, 11:30 AM)29.35 "Hg (Dec 19, 5:30 AM)
Average35 °F89%30.13 "Hg
* Reported Dec 5 12:30 AM — Dec 20 12:30 AM, St. John's, Weather by CustomWeather, © 2014

Note: Actual official high and low records may vary slightly from our data, if they occured in-between our weather recording intervals... More about our weather records

Advertising

St. John's weather history for previous 24 hours

 ConditionsComfort  
Time TempWeatherWind HumidityBarometerVisibility
12:30 AM
Dec 20
32 °FSnow flurries. Overcast.7 mph93%29.81 "Hg10 mi
11:30 PM
Dec 19
32 °FSnow flurries. Low clouds.12 mph93%29.77 "Hg10 mi
10:30 PM36 °FOvercast.15 mph87%29.71 "Hg15 mi
9:30 PM36 °FPassing clouds.17 mph87%29.68 "Hg15 mi
8:30 PM36 °FPassing clouds.23 mph87%29.65 "Hg15 mi
7:30 PM36 °FOvercast.23 mph93%29.61 "Hg15 mi
6:30 PM36 °FPassing clouds.21 mph93%29.58 "Hg15 mi
5:30 PM36 °FOvercast.21 mph93%29.56 "Hg15 mi
4:30 PM37 °FPassing clouds.21 mph87%29.53 "Hg15 mi
3:30 PM37 °FPartly sunny.22 mph93%29.52 "Hg15 mi
2:30 PM39 °FBroken clouds.25 mph81%29.49 "Hg15 mi
1:30 PM41 °FPartly sunny.26 mph76%29.47 "Hg15 mi
12:30 PM41 °FPartly sunny.36 mph76%29.46 "Hg15 mi
11:30 AM41 °FPartly sunny.28 mph76%29.45 "Hg15 mi
10:30 AM41 °FPartly sunny.25 mph87%29.45 "Hg15 mi
9:30 AM43 °FScattered clouds.32 mph81%29.44 "Hg15 mi
8:30 AM41 °FPartly sunny.28 mph87%29.41 "Hg15 mi
7:30 AM41 °FScattered clouds.29 mph87%29.38 "Hg15 mi
6:30 AM45 °FPassing clouds.21 mph87%29.37 "Hg15 mi
5:30 AM46 °FPassing clouds.20 mph100%29.35 "Hg15 mi
4:30 AM43 °FLight rain. Fog.14 mph100%29.38 "Hg1 mi
3:30 AM45 °FQuite cool.16 mph100%29.45 "Hg1 mi
2:30 AM45 °FDrizzle. Fog.17 mph100%29.49 "Hg1 mi
1:30 AM45 °FDrizzle. Fog.17 mph100%29.51 "Hg1 mi
Weather by CustomWeather, © 2014

See weather overviewHow to use our weather pages